Hot Springs, VA

8:09 AM EST on February 19, 2017 (GMT -0500)
Ingalls

Weather History for KHSP - August, 2014

Change the Weather History Date:

Wednesday, August 27, 2014

  Actual Average Record
Temperature  
Mean Temperature 64 °F -  
Max Temperature 75 °F 72 °F 82 °F (2003)
Min Temperature 55 °F 59 °F 51 °F (2008)
Growing Degree Days 14 (Base 50)    
Moisture  
Dew Point 57 °F    
Average Humidity 75    
Maximum Humidity 100    
Minimum Humidity 55    
Precipitation  
Precipitation 0.00 in - - ()
Sea Level Pressure  
Sea Level Pressure 30.22 in    
Wind  
Wind Speed 6 mph (NW)    
Max Wind Speed 14 mph    
Max Gust Speed 21 mph    
Visibility 10 miles    
Events      
Averages and records for this station are not official NWS values.
T = Trace of Precipitation, MM = Missing Value Source: NWS Daily Summary

Daily Weather History Graph

Daily Weather History Graph

Search for Another Location

Airport or City:

Trip Planner

Search our weather history database for the weather conditions in past years. The results will help you decide how hot, cold, wet, or windy it might be!

Date:

Astronomy

Aug. 27, 2014 Rise Set
Actual Time 6:44 AM EDT 7:56 PM EDT
Civil Twilight 6:17 AM EDT 8:23 PM EDT
Nautical Twilight 5:45 AM EDT 8:55 PM EDT
Astronomical Twilight 5:11 AM EDT 9:29 PM EDT
Moon 8:36 AM EDT (8/27) 8:50 PM EDT (8/27)
Length of Visible Light 14h 05m
Length of Day
13h 11m
Waxing Crescent, 4% of the Moon is Illuminated
Aug 27
Waxing Crescent
Sep 2
First Quarter
Sep 8
Full
Sep 15
Last Quarter
Sep 24
New

Hourly Weather History & Observations

Time (EDT) Temp. Dew Point Humidity Pressure Visibility Wind Dir Wind Speed Gust Speed Precip Events Conditions
12:35 AM 57.9 °F 55.6 °F 92% 30.26 in 10.0 mi South 4.6 mph - N/A   Clear
12:55 AM 57.6 °F 54.1 °F 88% 30.26 in 10.0 mi Calm Calm - N/A   Clear
1:15 AM 57.2 °F 52.2 °F 83% 30.25 in 10.0 mi Calm Calm - N/A   Clear
1:35 AM 55.8 °F 54.9 °F 97% 30.25 in 10.0 mi WNW 3.5 mph - N/A   Clear
1:55 AM 57.2 °F 55.9 °F 96% 30.24 in 10.0 mi Calm Calm - N/A   Clear
2:15 AM 57.7 °F 53.2 °F 85% 30.23 in 10.0 mi Calm Calm - N/A   Clear
2:35 AM 57.4 °F 51.1 °F 79% 30.23 in 10.0 mi Calm Calm - N/A   Clear
2:55 AM 55.4 °F 49.1 °F 79% 30.23 in 10.0 mi West 4.6 mph - N/A   Clear
3:15 AM 55.8 °F 54.9 °F 97% 30.23 in 10.0 mi West 6.9 mph - N/A   Clear
3:35 AM 56.7 °F 55.4 °F 96% 30.23 in 10.0 mi WNW 8.1 mph - N/A   Clear
3:55 AM 57.2 °F 56.5 °F 97% 30.23 in 10.0 mi WNW 9.2 mph - N/A   Clear
4:15 AM 56.7 °F 56.7 °F 100% 30.22 in 10.0 mi WNW 8.1 mph - N/A   Clear
4:35 AM 56.8 °F 56.8 °F 100% 30.23 in 10.0 mi WNW 9.2 mph - N/A   Clear
4:55 AM 57.0 °F 57.0 °F 100% 30.22 in 10.0 mi WNW 8.1 mph - N/A   Clear
5:15 AM 57.2 °F 55.8 °F 95% 30.22 in 10.0 mi WNW 8.1 mph - N/A   Clear
5:35 AM 56.8 °F 54.3 °F 91% 30.23 in 10.0 mi WNW 9.2 mph - N/A   Clear
5:55 AM 57.2 °F 56.3 °F 97% 30.23 in 10.0 mi WNW 10.4 mph - N/A   Clear
6:10 AM 57.6 °F 54.3 °F 89% 30.23 in 10.0 mi NW 9.2 mph - N/A   Clear
6:35 AM 59.0 °F 52.7 °F 80% 30.23 in 10.0 mi NW 10.4 mph - N/A   Clear
6:55 AM 58.6 °F 53.2 °F 82% 30.24 in 10.0 mi NW 11.5 mph - N/A   Clear
7:15 AM 59.0 °F 53.4 °F 82% 30.24 in 10.0 mi NNW 11.5 mph - N/A   Clear
7:35 AM 59.9 °F 53.8 °F 80% 30.24 in 10.0 mi NW 10.4 mph - N/A   Clear
7:55 AM 60.1 °F 53.2 °F 78% 30.24 in 10.0 mi NW 10.4 mph - N/A   Clear
8:15 AM 61.3 °F 54.1 °F 77% 30.24 in 10.0 mi NW 9.2 mph - N/A   Clear
8:35 AM 62.1 °F 54.1 °F 75% 30.25 in 10.0 mi NW 9.2 mph - N/A   Clear
8:55 AM 63.0 °F 54.0 °F 72% 30.25 in 10.0 mi NNW 8.1 mph - N/A   Clear
9:15 AM 63.9 °F 54.5 °F 72% 30.26 in 10.0 mi NNW 5.8 mph - N/A   Clear
9:35 AM 64.9 °F 54.5 °F 69% 30.25 in 10.0 mi NNE 5.8 mph - N/A   Clear
9:55 AM 66.0 °F 55.2 °F 68% 30.26 in 10.0 mi NNE 4.6 mph - N/A   Clear
10:15 AM 66.6 °F 55.6 °F 68% 30.26 in 10.0 mi NNE 3.5 mph - N/A   Clear
10:35 AM 66.9 °F 56.3 °F 69% 30.26 in 10.0 mi ESE 4.6 mph - N/A   Clear
10:55 AM 66.6 °F 56.3 °F 69% 30.27 in 10.0 mi Calm Calm - N/A   Clear
11:15 AM 68.2 °F 56.1 °F 65% 30.27 in 10.0 mi ENE 4.6 mph - N/A   Clear
11:35 AM 68.5 °F 55.6 °F 63% 30.26 in 10.0 mi East 6.9 mph - N/A   Clear
11:55 AM 69.1 °F 55.2 °F 61% 30.26 in 10.0 mi East 8.1 mph - N/A   Clear
12:15 PM 69.4 °F 55.2 °F 60% 30.26 in 10.0 mi East 4.6 mph - N/A   Clear
12:35 PM 69.8 °F 55.9 °F 61% 30.25 in 10.0 mi ENE 5.8 mph - N/A   Clear
12:55 PM 70.5 °F 55.9 °F 60% 30.25 in 10.0 mi ENE 5.8 mph - N/A   Clear
1:15 PM 71.4 °F 54.7 °F 55% 30.25 in 10.0 mi ENE 5.8 mph - N/A   Clear
1:35 PM 71.8 °F 55.8 °F 57% 30.23 in 10.0 mi NNE 3.5 mph - N/A   Clear
1:55 PM 72.0 °F 56.5 °F 58% 30.23 in 10.0 mi Calm Calm - N/A   Clear
2:15 PM 71.1 °F 55.8 °F 58% 30.23 in 10.0 mi Calm Calm - N/A   Scattered Clouds
2:35 PM 72.1 °F 56.7 °F 58% 30.23 in 7.0 mi East 3.5 mph - N/A   Mostly Cloudy
2:55 PM 72.9 °F 57.0 °F 57% 30.22 in 10.0 mi Calm Calm - N/A   Mostly Cloudy
3:15 PM 74.1 °F 58.8 °F 59% 30.21 in 10.0 mi NNW 3.5 mph - N/A   Scattered Clouds
3:35 PM 73.8 °F 59.2 °F 60% 30.21 in 10.0 mi West 3.5 mph - N/A   Mostly Cloudy
3:55 PM 74.7 °F 59.2 °F 58% 30.21 in 10.0 mi NNW 4.6 mph - N/A   Scattered Clouds
4:15 PM 74.8 °F 59.5 °F 59% 30.20 in 10.0 mi Calm Calm - N/A   Scattered Clouds
4:35 PM 72.7 °F 58.1 °F 60% 30.20 in 10.0 mi SSE 3.5 mph - N/A   Mostly Cloudy
4:55 PM 73.4 °F 59.4 °F 61% 30.20 in 10.0 mi South 5.8 mph - N/A   Mostly Cloudy
5:15 PM 71.2 °F 59.0 °F 65% 30.20 in 10.0 mi South 4.6 mph - N/A   Mostly Cloudy
5:35 PM 72.1 °F 59.5 °F 64% 30.19 in 10.0 mi SW 3.5 mph - N/A   Scattered Clouds
5:55 PM 72.9 °F 59.9 °F 64% 30.18 in 10.0 mi WSW 6.9 mph - N/A   Scattered Clouds
6:15 PM 72.9 °F 59.7 °F 63% 30.18 in 10.0 mi West 6.9 mph - N/A   Mostly Cloudy
6:35 PM 71.2 °F 59.5 °F 66% 30.18 in 10.0 mi WSW 5.8 mph - N/A   Scattered Clouds
6:55 PM 70.2 °F 59.2 °F 68% 30.17 in 10.0 mi WSW 9.2 mph - N/A   Scattered Clouds
7:15 PM 70.7 °F 59.0 °F 66% 30.16 in 10.0 mi WSW 8.1 mph - N/A   Scattered Clouds
7:35 PM 69.4 °F 59.5 °F 71% 30.16 in 10.0 mi WSW 8.1 mph - N/A   Clear
7:55 PM 68.4 °F 59.5 °F 73% 30.16 in 10.0 mi WSW 9.2 mph - N/A   Clear
8:15 PM 68.9 °F 59.9 °F 73% 30.16 in 10.0 mi West 10.4 mph - N/A   Clear
8:30 PM 68.5 °F 60.1 °F 74% 30.17 in 10.0 mi West 10.4 mph - N/A   Clear
8:55 PM 68.5 °F 60.4 °F 75% 30.18 in 10.0 mi WNW 9.2 mph - N/A   Clear
9:15 PM 68.2 °F 60.8 °F 77% 30.19 in 10.0 mi WNW 8.1 mph - N/A   Clear
9:35 PM 67.6 °F 60.6 °F 78% 30.20 in 10.0 mi WNW 9.2 mph - N/A   Clear
9:55 PM 67.3 °F 60.8 °F 80% 30.19 in 10.0 mi NW 10.4 mph - N/A   Clear
10:15 PM 67.1 °F 61.0 °F 81% 30.18 in 10.0 mi NNW 11.5 mph 17.3 mph N/A   Scattered Clouds
10:35 PM 66.7 °F 61.2 °F 82% 30.19 in 10.0 mi NW 10.4 mph 17.3 mph N/A   Clear
10:55 PM 66.7 °F 61.3 °F 83% 30.19 in 10.0 mi NW 13.8 mph 20.7 mph N/A   Clear
11:15 PM 66.4 °F 61.7 °F 85% 30.18 in 10.0 mi NW 13.8 mph - N/A   Clear
11:35 PM 66.2 °F 61.9 °F 86% 30.17 in 10.0 mi NW 11.5 mph - N/A   Clear
11:55 PM 65.8 °F 62.6 °F 89% 30.17 in 10.0 mi WNW 10.4 mph - N/A   Clear